| time (UTC) | temp C | wind direction | speed KPH | gust KPH | rain 1hr cm | rain 24hr cm | rain mn cm | humidity % | barometer mb |
| 20260507130037 | 12 | 326 | 3.2 | 4.8 | 0.00 | 1.04 | 0.58 | 69 | 1013.0 |
| 20260507124547 | 12 | 312 | 3.2 | 4.8 | 0.00 | 1.04 | 0.58 | 69 | 1012.9 |
| 20260507123045 | 12 | 327 | 3.2 | 4.8 | 0.00 | 1.04 | 0.58 | 69 | 1012.9 |
| 20260507121549 | 12 | 315 | 0.0 | 0.0 | 0.00 | 1.04 | 0.58 | 69 | 1013.0 |
| 20260507120044 | 12 | 329 | 4.8 | 4.8 | 0.00 | 1.04 | 0.58 | 71 | 1013.0 |
| 20260507114548 | 12 | 321 | 1.6 | 1.6 | 0.00 | 1.04 | 0.58 | 71 | 1012.8 |
| 20260507113040 | 12 | 276 | 0.0 | 1.6 | 0.00 | 1.04 | 0.58 | 88 | 1012.6 |
| 20260507111540 | 12 | 321 | 3.2 | 3.2 | 0.00 | 1.04 | 0.58 | 88 | 1012.6 |
| 20260507110046 | 12 | 0 | 0.0 | 1.6 | 0.00 | 1.04 | 0.58 | 88 | 1012.4 |
| 20260507104544 | 12 | 325 | 1.6 | 1.6 | 0.00 | 1.04 | 0.58 | 84 | 1012.1 |
| 20260507103044 | 12 | 0 | 0.0 | 0.0 | 0.00 | 1.04 | 0.58 | 84 | 1012.3 |
| 20260507101541 | 12 | 0 | 0.0 | 1.6 | 0.00 | 1.04 | 0.58 | 84 | 1012.1 |
| 20260507100042 | 12 | 0 | 0.0 | 3.2 | 0.00 | 1.04 | 0.58 | 86 | 1011.8 |
| 20260507094541 | 12 | 142 | 0.0 | 0.0 | 0.00 | 1.04 | 0.58 | 86 | 1011.7 |
| 20260507093053 | 12 | 246 | 0.0 | 3.2 | 0.00 | 1.04 | 0.58 | 86 | 1011.9 |
| 20260507091549 | 12 | 82 | 3.2 | 3.2 | 0.00 | 1.04 | 0.58 | 87 | 1011.7 |
| 20260507090042 | 12 | 0 | 0.0 | 0.0 | 0.00 | 1.04 | 0.58 | 87 | 1011.6 |
| 20260507084541 | 12 | 0 | 0.0 | 0.0 | 0.00 | 1.04 | 0.58 | 87 | 1011.5 |
| 20260507083041 | 12 | 322 | 3.2 | 6.4 | 0.00 | 1.04 | 0.58 | 89 | 1011.6 |
| 20260507081547 | 12 | 334 | 1.6 | 3.2 | 0.00 | 1.04 | 0.58 | 89 | 1011.6 |
| 20260507080036 | 13 | 291 | 0.0 | 0.0 | 0.00 | 1.04 | 0.58 | 89 | 1011.1 |
| 20260507074558 | 13 | 0 | 0.0 | 8.0 | 0.00 | 1.04 | 0.58 | 92 | 1011.0 |
| 20260507073042 | 13 | 94 | 0.0 | 6.4 | 0.00 | 1.04 | 0.58 | 92 | 1010.7 |
| 20260507071544 | 13 | 350 | 0.0 | 0.0 | 0.00 | 1.04 | 0.58 | 92 | 1010.7 |
| 20260507070043 | 13 | 0 | 3.2 | 3.2 | 0.00 | 1.04 | 0.58 | 92 | 1010.7 |
| 20260507064541 | 13 | 0 | 4.8 | 4.8 | 0.03 | 1.04 | 0.58 | 92 | 1010.7 |
| 20260507063040 | 13 | 293 | 1.6 | 4.8 | 0.08 | 1.04 | 0.58 | 92 | 1010.8 |
| 20260507061540 | 13 | 314 | 1.6 | 3.2 | 0.10 | 1.04 | 0.58 | 91 | 1010.2 |
| 20260507060040 | 13 | 0 | 0.0 | 1.6 | 0.15 | 1.04 | 0.58 | 91 | 1010.1 |
| 20260507054604 | 13 | 288 | 1.6 | 6.4 | 0.28 | 1.02 | 0.56 | 91 | 1010.4 |
| 20260507053049 | 13 | 314 | 1.6 | 3.2 | 0.38 | 0.97 | 0.51 | 91 | 1010.6 |
| 20260507051542 | 14 | 320 | 8.0 | 8.0 | 0.48 | 0.94 | 0.48 | 91 | 1010.4 |
| 20260507050042 | 15 | 315 | 1.6 | 1.6 | 0.43 | 0.89 | 0.43 | 91 | 1010.5 |
| 20260507044548 | 15 | 319 | 0.0 | 1.6 | 0.28 | 0.74 | 0.28 | 77 | 1010.8 |
| 20260507043045 | 16 | 349 | 0.0 | 8.0 | 0.13 | 0.58 | 0.13 | 77 | 1011.1 |
| 20260507041542 | 17 | 311 | 0.0 | 6.4 | 0.00 | 0.46 | 0.00 | 77 | 1010.4 |
| 20260507040044 | 17 | 64 | 3.2 | 8.0 | 0.00 | 0.46 | 0.00 | 73 | 1010.3 |
| 20260507034551 | 17 | 323 | 1.6 | 8.0 | 0.00 | 0.46 | 0.46 | 73 | 1010.0 |
| 20260507033045 | 17 | 68 | 0.0 | 3.2 | 0.00 | 0.46 | 0.46 | 80 | 1010.0 |
| 20260507031602 | 18 | 288 | 1.6 | 3.2 | 0.00 | 0.46 | 0.46 | 80 | 1009.9 |
| 20260507030050 | 18 | 311 | 4.8 | 4.8 | 0.00 | 0.46 | 0.46 | 80 | 1009.6 |
| 20260507024544 | 18 | 72 | 1.6 | 1.6 | 0.00 | 0.46 | 0.46 | 85 | 1009.6 |
| 20260507023040 | 19 | 0 | 1.6 | 1.6 | 0.00 | 0.46 | 0.46 | 85 | 1009.2 |
| 20260507021540 | 19 | 0 | 0.0 | 0.0 | 0.00 | 0.46 | 0.46 | 85 | 1009.1 |
| 20260507020048 | 19 | 0 | 0.0 | 0.0 | 0.00 | 0.46 | 0.46 | 84 | 1009.1 |
| 20260507014548 | 19 | 0 | 0.0 | 0.0 | 0.00 | 0.46 | 0.46 | 84 | 1009.1 |
| 20260507013044 | 19 | 0 | 0.0 | 0.0 | 0.00 | 0.46 | 0.46 | 84 | 1009.2 |
| 20260507011542 | 19 | 0 | 0.0 | 0.0 | 0.00 | 0.46 | 0.46 | 84 | 1009.4 |
| 20260507010047 | 18 | 0 | 0.0 | 0.0 | 0.00 | 0.46 | 0.46 | 84 | 1009.5 |
| 20260507004544 | 19 | 0 | 0.0 | 0.0 | 0.00 | 0.46 | 0.46 | 84 | 1009.1 |
| 20260507003049 | 20 | 0 | 0.0 | 0.0 | 0.00 | 0.46 | 0.46 | 80 | 1009.1 |
| 20260507001543 | 20 | 0 | 0.0 | 0.0 | 0.46 | 0.46 | 0.46 | 80 | 1008.9 |
| 20260507000042 | 20 | 0 | 0.0 | 0.0 | 0.46 | 0.46 | 0.46 | 80 | 1008.8 |
| 20260506234547 | 20 | 0 | 0.0 | 0.0 | 0.46 | 0.46 | 0.46 | 78 | 1008.7 |
| 20260506233055 | 20 | 0 | 0.0 | 0.0 | 0.46 | 0.46 | 0.46 | 78 | 1008.3 |
| 20260506231545 | 20 | 0 | 0.0 | 0.0 | 0.00 | 0.00 | 0.00 | 78 | 1008.3 |
| 20260506230042 | 20 | 0 | 0.0 | 0.0 | 0.00 | 0.00 | 0.00 | 77 | 1008.3 |
| 20260506224541 | 20 | 0 | 0.0 | 4.8 | 0.00 | 0.00 | 0.00 | 77 | 1008.1 |
| 20260506223040 | 20 | 230 | 1.6 | 3.2 | 0.00 | 0.00 | 0.00 | 77 | 1008.0 |
| 20260506221540 | 20 | 0 | 0.0 | 1.6 | 0.00 | 0.00 | 0.00 | 76 | 1008.1 |
| 20260506220040 | 20 | 69 | 0.0 | 3.2 | 0.00 | 0.00 | 0.00 | 76 | 1008.2 |
| 20260506214540 | 20 | 273 | 1.6 | 3.2 | 0.00 | 0.00 | 0.00 | 76 | 1008.3 |
| 20260506213055 | 21 | 0 | 0.0 | 1.6 | 0.00 | 0.00 | 0.00 | 76 | 1008.3 |
| 20260506211542 | 20 | 203 | 0.0 | 9.7 | 0.00 | 0.00 | 0.00 | 76 | 1008.1 |
| 20260506210041 | 20 | 231 | 1.6 | 3.2 | 0.00 | 0.00 | 0.00 | 76 | 1008.0 |
| 20260506204546 | 20 | 28 | 8.0 | 9.7 | 0.00 | 0.00 | 0.00 | 77 | 1007.9 |
| 20260506203040 | 20 | 45 | 6.4 | 12.9 | 0.00 | 0.00 | 0.00 | 77 | 1007.9 |
| 20260506201546 | 20 | 271 | 0.0 | 0.0 | 0.00 | 0.00 | 0.00 | 78 | 1007.9 |
| 20260506200042 | 20 | 195 | 0.0 | 6.4 | 0.00 | 0.00 | 0.00 | 78 | 1007.9 |
| 20260506194541 | 20 | 123 | 0.0 | 12.9 | 0.00 | 0.00 | 0.00 | 78 | 1008.0 |
| 20260506193040 | 20 | 187 | 4.8 | 6.4 | 0.00 | 0.00 | 0.00 | 79 | 1008.0 |
| 20260506191541 | 19 | 247 | 1.6 | 4.8 | 0.00 | 0.00 | 0.00 | 79 | 1008.4 |
| 20260506190041 | 19 | 310 | 3.2 | 4.8 | 0.00 | 0.00 | 0.00 | 79 | 1008.6 |
| 20260506184549 | 19 | 272 | 4.8 | 4.8 | 0.00 | 0.00 | 0.00 | 79 | 1008.7 |
| 20260506183042 | 19 | 164 | 11.3 | 11.3 | 0.00 | 0.00 | 0.00 | 79 | 1008.5 |
| 20260506181541 | 19 | 309 | 1.6 | 3.2 | 0.00 | 0.00 | 0.00 | 79 | 1008.9 |
| 20260506180050 | 19 | 219 | 4.8 | 6.4 | 0.00 | 0.00 | 0.00 | 82 | 1009.0 |
| 20260506174546 | 18 | 229 | 3.2 | 6.4 | 0.00 | 0.00 | 0.00 | 82 | 1009.0 |
| 20260506173040 | 18 | 139 | 8.0 | 8.0 | 0.00 | 0.00 | 0.00 | 82 | 1009.2 |
| 20260506171550 | 18 | 44 | 3.2 | 16.1 | 0.00 | 0.00 | 0.00 | 87 | 1009.1 |
| 20260506170056 | 18 | 284 | 4.8 | 8.0 | 0.00 | 0.00 | 0.00 | 87 | 1009.3 |
| 20260506164541 | 17 | 265 | 4.8 | 6.4 | 0.00 | 0.00 | 0.00 | 87 | 1009.4 |
| 20260506163057 | 17 | 159 | 8.0 | 16.1 | 0.00 | 0.00 | 0.00 | 92 | 1009.5 |
| 20260506161539 | 17 | 208 | 4.8 | 4.8 | 0.00 | 0.00 | 0.00 | 92 | 1009.7 |
| 20260506160049 | 17 | 147 | 1.6 | 8.0 | 0.00 | 0.00 | 0.00 | 92 | 1009.6 |
| 20260506154604 | 16 | 234 | 1.6 | 1.6 | 0.00 | 0.00 | 0.00 | 92 | 1009.9 |
| 20260506153058 | 16 | 0 | 1.6 | 6.4 | 0.00 | 0.00 | 0.00 | 92 | 1010.0 |
| 20260506151541 | 16 | 100 | 4.8 | 6.4 | 0.00 | 0.00 | 0.00 | 92 | 1010.1 |
| 20260506150040 | 16 | 195 | 1.6 | 1.6 | 0.00 | 0.00 | 0.00 | 91 | 1010.5 |
| 20260506144548 | 16 | 131 | 0.0 | 9.7 | 0.00 | 0.00 | 0.00 | 91 | 1010.6 |
| 20260506143059 | 16 | 174 | 4.8 | 11.3 | 0.00 | 0.00 | 0.00 | 91 | 1010.7 |
| 20260506141544 | 15 | 226 | 1.6 | 3.2 | 0.00 | 0.00 | 0.00 | 88 | 1010.6 |
| 20260506140042 | 16 | 220 | 0.0 | 6.4 | 0.00 | 0.00 | 0.00 | 88 | 1010.7 |
| 20260506134541 | 16 | 238 | 1.6 | 6.4 | 0.00 | 0.00 | 0.00 | 88 | 1010.8 |
| 20260506133041 | 16 | 26 | 6.4 | 6.4 | 0.00 | 0.00 | 0.00 | 85 | 1010.9 |
| 20260506131541 | 16 | 189 | 0.0 | 6.4 | 0.00 | 0.00 | 0.00 | 85 | 1010.8 |